FW2969 Weather Reports


time (UTC)temp
C
wind
direction
speed
KPH
gust
KPH
rain 1hr
cm
rain 24hr
cm
rain mn
cm
humidity
%
barometer
mb
20260510050008 21 55 0.0 1.6 0.00 0.00 0.00 37 1014.5
20260510044504 21 55 0.0 0.0 0.00 0.00 0.00 38 1014.5
20260510043111 20 55 0.0 0.0 0.00 0.00 0.00 40 1014.4
20260510041556 18 55 0.0 0.0 0.00 0.00 0.00 40 1014.3
20260510040059 17 54 0.0 0.0 0.00 0.00 0.00 47 1014.3
20260510034558 17 54 0.0 0.0 0.00 0.00 0.00 48 1014.2
20260510033117 17 52 0.0 1.6 0.00 0.00 0.00 54 1014.1
20260510031601 17 57 0.0 3.2 0.00 0.00 0.00 54 1014.1
20260510030056 17 38 0.0 1.6 0.00 0.00 0.00 52 1014.0
20260510024548 17 5 0.0 1.6 0.00 0.00 0.00 49 1013.9
20260510023047 17 351 0.0 3.2 0.00 0.00 0.00 47 1013.9
20260510021547 16 74 0.0 4.8 0.00 0.00 0.00 46 1013.9
20260510020049 16 65 0.0 3.2 0.00 0.00 0.00 45 1014.0
20260510014548 16 73 0.0 3.2 0.00 0.00 0.00 47 1014.1
20260510013043 16 65 0.0 1.6 0.00 0.00 0.00 47 1014.1
20260510011545 16 64 0.0 1.6 0.00 0.00 0.00 47 1014.2
20260510010041 16 337 0.0 6.4 0.00 0.00 0.00 48 1014.2
20260510004540 16 109 0.0 1.6 0.00 0.00 0.00 52 1014.2
20260510003039 16 57 0.0 3.2 0.00 0.00 0.00 54 1014.3
20260510001539 16 34 0.0 1.6 0.00 0.00 0.00 58 1014.4
20260510000056 16 43 0.0 3.2 0.00 0.00 0.00 58 1014.3
20260509234546 16 24 0.0 1.6 0.00 0.00 0.00 53 1014.5
20260509233033 16 23 0.0 1.6 0.00 0.00 0.00 50 1014.4
20260509231530 17 23 0.0 0.0 0.00 0.00 0.00 50 1014.4
20260509230033 17 23 0.0 3.2 0.00 0.00 0.00 50 1014.4
20260509224529 17 349 0.0 3.2 0.00 0.00 0.00 51 1014.3
20260509223028 17 357 0.0 3.2 0.00 0.00 0.00 52 1014.4
20260509221527 17 268 0.0 6.4 0.00 0.00 0.00 52 1014.5
20260509220025 17 322 0.0 11.3 0.00 0.00 0.00 52 1014.5
20260509214529 17 331 0.0 4.8 0.00 0.00 0.00 55 1014.6
20260509213021 16 20 0.0 1.6 0.00 0.00 0.00 56 1014.6
20260509211519 17 18 0.0 0.0 0.00 0.00 0.00 57 1014.5
20260509210016 16 18 0.0 0.0 0.00 0.00 0.00 57 1014.5
20260509204523 17 18 0.0 1.6 0.00 0.00 0.00 58 1014.5
20260509203016 17 338 0.0 1.6 0.00 0.00 0.00 57 1014.5
20260509201516 17 338 0.0 3.2 0.00 0.00 0.00 55 1014.6
20260509200015 17 354 0.0 1.6 0.00 0.00 0.00 54 1014.6
20260509194518 18 359 0.0 1.6 0.00 0.00 0.00 49 1014.6
20260509193014 18 359 0.0 0.0 0.00 0.00 0.00 47 1014.6
20260509191518 18 359 0.0 3.2 0.00 0.00 0.00 51 1014.8
20260509190013 18 44 0.0 4.8 0.00 0.00 0.00 50 1014.7
20260509184515 18 324 0.0 0.0 0.00 0.00 0.00 45 1014.6
20260509183013 19 324 0.0 0.0 0.00 0.00 0.00 44 1014.6
20260509181511 20 323 0.0 3.2 0.00 0.00 0.00 39 1014.4
20260509180014 19 320 0.0 3.2 0.00 0.00 0.00 39 1014.4
20260509174510 19 332 0.0 3.2 0.00 0.00 0.00 42 1014.3
20260509173009 19 341 0.0 1.6 0.00 0.00 0.00 44 1014.4
20260509171509 20 341 0.0 3.2 0.00 0.00 0.00 46 1014.3
20260509170009 20 353 0.0 3.2 0.00 0.00 0.00 46 1014.2
20260509164508 20 43 0.0 3.2 0.00 0.00 0.00 45 1014.1
20260509163007 20 61 0.0 1.6 0.00 0.00 0.00 49 1014.1
20260509161507 20 353 0.0 4.8 0.00 0.00 0.00 52 1014.0
20260509160007 20 13 0.0 3.2 0.00 0.00 0.00 52 1014.1
20260509154508 21 357 0.0 6.4 0.00 0.00 0.00 49 1014.2
20260509153005 22 3 0.0 9.7 0.00 0.00 0.00 45 1014.0
20260509151505 22 303 1.6 9.7 0.00 0.00 0.00 42 1014.0
20260509150003 22 334 0.0 9.7 0.00 0.00 0.00 39 1014.0
20260509144507 22 331 1.6 9.7 0.00 0.00 0.00 42 1014.0
20260509143000 23 275 3.2 14.5 0.00 0.00 0.00 40 1014.2
20260509141600 23 310 1.6 14.5 0.00 0.00 0.00 39 1014.2
20260509140107 23 298 6.4 16.1 0.00 0.00 0.00 38 1014.0
20260509134612 23 332 3.2 17.7 0.00 0.00 0.00 35 1014.2
20260509133056 24 49 1.6 11.3 0.00 0.00 0.00 36 1014.3
20260509131555 23 305 0.0 9.7 0.00 0.00 0.00 39 1014.3
20260509130059 23 346 3.2 14.5 0.00 0.00 0.00 40 1014.3
20260509124551 23 305 4.8 14.5 0.00 0.00 0.00 41 1014.4
20260509123106 23 250 3.2 12.9 0.00 0.00 0.00 45 1014.4
20260509121607 23 351 3.2 16.1 0.00 0.00 0.00 47 1014.5
20260509120046 23 292 3.2 14.5 0.00 0.00 0.00 47 1014.5
20260509114545 22 283 3.2 14.5 0.00 0.00 0.00 54 1014.7
20260509113046 23 299 1.6 9.7 0.00 0.00 0.00 55 1014.8
20260509111557 22 281 1.6 16.1 0.00 0.00 0.00 56 1014.8
20260509110041 22 327 3.2 14.5 0.00 0.00 0.00 52 1014.9
20260509104545 22 259 4.8 14.5 0.00 0.00 0.00 52 1014.9
20260509103048 22 291 4.8 11.3 0.00 0.00 0.00 57 1014.9
20260509101608 22 236 3.2 14.5 0.00 0.00 0.00 57 1015.0
20260509100042 22 283 3.2 14.5 0.00 0.00 0.00 53 1015.0
20260509094539 22 263 1.6 11.3 0.00 0.00 0.00 54 1015.1
20260509093034 22 255 1.6 12.9 0.00 0.00 0.00 56 1015.2
20260509091540 22 315 3.2 9.7 0.00 0.00 0.00 54 1015.3
20260509090038 22 236 3.2 9.7 0.00 0.00 0.00 53 1015.5
20260509084536 22 311 3.2 8.0 0.00 0.00 0.00 47 1015.5
20260509083028 22 330 1.6 8.0 0.00 0.00 0.00 46 1015.6
20260509081529 22 299 0.0 6.4 0.00 0.00 0.00 46 1015.6
20260509080028 22 267 1.6 4.8 0.00 0.00 0.00 46 1015.6
20260509074536 21 300 0.0 4.8 0.00 0.00 0.00 48 1015.7
20260509073023 21 277 0.0 6.4 0.00 0.00 0.00 48 1015.6
20260509071525 21 295 0.0 4.8 0.00 0.00 0.00 46 1015.5
20260509070023 21 288 1.6 6.4 0.00 0.00 0.00 45 1015.5
20260509064522 21 294 0.0 3.2 0.00 0.00 0.00 45 1015.4
20260509063027 21 304 0.0 3.2 0.00 0.00 0.00 48 1015.4
20260509061521 21 320 0.0 3.2 0.00 0.00 0.00 48 1015.3
20260509060020 21 3 0.0 1.6 0.00 0.00 0.00 47 1015.2
20260509054519 21 3 0.0 0.0 0.00 0.00 0.00 46 1015.2
20260509053021 21 83 0.0 0.0 0.00 0.00 0.00 44 1015.1
20260509051514 21 83 0.0 1.6 0.00 0.00 0.00 49 1015.1